User: anonymous   Login
Location: Abbey Hill
(34.0751°N, 84.0688°W)
Time: 12:29:37
(UTC+00:00)
Language:

ISS - Orbit

View from above orbital plane
View from above orbital plane
View from above satellite
View from above satellite

Ground track
Ground track

The orbit data is extracted from the following two-line orbital elements,

1 25544U 98067A   21299.23679509  .00002448  00000-0  52948-4 0  9994
2 25544  51.6442  54.7307 0003882 142.4835  55.9903 15.48790990308901
Epoch (UTC): 26 October 2021 05:40:59
Eccentricity: 0.0003882
inclination: 51.6442°
perigee height: 417 km
apogee height: 423 km
right ascension of ascending node: 54.7307°
argument of perigee: 142.4835°
revolutions per day: 15.48790990
mean anomaly at epoch: 55.9903°
orbit number at epoch: 30890

The dashed part of the orbit path shows where the satellite is in the earth's shadow,  

DLR